Total_Precipitation_Accumulation
2.53 2.03 1.96 1.53 0.85 0.54 0.45 0.72 0.43 0.33 0.20 0.16 0.31 0.28 0.20 0.19 0.18 0.11 0.08 0.08 0.07 0.06
2.49 1.66 1.64 1.98 1.88 0.74 0.48 0.60 0.91 0.61 0.33 0.24 0.21 0.23 0.22 0.22 0.25 0.23 0.18 0.14 0.07 0.04
1.84 2.12 1.92 1.55 1.67 1.43 0.59 0.43 0.63 0.88 0.56 0.30 0.25 0.23 0.20 0.17 0.13 0.14 0.12 0.14 0.11 0.07
0.86 1.61 1.56 1.95 1.33 1.35 1.04 0.56 0.42 0.47 0.64 0.54 0.29 0.20 0.19 0.18 0.13 0.09 0.03 0.02 0.01 0.01
0.35 0.90 0.76 1.20 1.48 1.34 1.09 0.95 0.52 0.35 0.35 0.40 0.46 0.31 0.22 0.13 0.12 0.06 0.01 0.01 0.00 0.00
0.37 0.57 0.53 0.78 0.97 1.18 1.50 1.09 0.75 0.42 0.28 0.22 0.26 0.32 0.23 0.16 0.10 0.05 0.02 0.01 0.00 0.00
0.52 0.65 0.36 0.40 0.68 0.56 0.86 1.12 0.77 0.69 0.37 0.24 0.19 0.23 0.25 0.20 0.13 0.07 0.06 0.04 0.02 0.02
0.72 0.61 0.43 0.34 0.46 0.63 0.60 0.91 0.76 0.84 0.64 0.40 0.33 0.30 0.28 0.24 0.18 0.15 0.12 0.10 0.06 0.03
0.58 0.60 0.43 0.47 0.41 0.59 0.65 0.64 0.82 0.77 0.92 0.71 0.45 0.36 0.37 0.38 0.33 0.28 0.26 0.23 0.16 0.14
0.48 0.37 0.40 0.40 0.51 0.60 0.81 0.81 0.89 1.11 0.74 0.82 0.86 0.77 0.51 0.42 0.36 0.34 0.36 0.38 0.36 0.32
0.29 0.31 0.30 0.26 0.39 0.54 0.87 0.98 1.01 0.98 0.81 0.55 0.54 0.76 0.83 0.71 0.49 0.39 0.32 0.30 0.33 0.36
0.02 0.03 0.04 0.05 0.06 0.17 0.20 0.23 0.26 0.32 0.38 0.44 0.45 0.50 0.51 0.72 0.68 0.53 0.43 0.39 0.35 0.35
0.01 0.01 0.02 0.02 0.02 0.02 0.05 0.04 0.03 0.03 0.03 0.10 0.13 0.28 0.32 0.29 0.33 0.52 0.59 0.61 0.53 0.54
0.00 0.00 0.00 0.00 0.00 0.00 0.00 0.00 0.01 0.01 0.02 0.02 0.04 0.04 0.06 0.08 0.05 0.07 0.10 0.14 0.20 0.26